TimeMST,TemperatureF,Dew PointF,Humidity,Sea Level PressureIn,VisibilityMPH,Wind Direction,Wind SpeedMPH,Gust SpeedMPH,PrecipitationIn,Events,Conditions,WindDirDegrees,DateUTC
12:53 AM,3.0,-0.9,84,30.51,10.0,East,3.5,-,N/A,,Clear,90,2013-01-04 07:53:00
1:53 AM,5.0,1.0,84,30.50,10.0,East,6.9,-,N/A,,Clear,90,2013-01-04 08:53:00
2:53 AM,5.0,-0.0,80,30.50,10.0,East,6.9,-,N/A,,Clear,90,2013-01-04 09:53:00
3:53 AM,3.9,-0.9,80,30.50,10.0,East,6.9,-,N/A,,Clear,100,2013-01-04 10:53:00
4:53 AM,3.0,-2.0,80,30.51,10.0,East,6.9,-,N/A,,Clear,90,2013-01-04 11:53:00
5:53 AM,3.0,-2.0,80,30.52,10.0,East,8.1,-,N/A,,Clear,100,2013-01-04 12:53:00
6:53 AM,1.9,-2.9,80,30.55,10.0,East,5.8,-,N/A,,Clear,90,2013-01-04 13:53:00
7:53 AM,1.9,-2.9,80,30.59,10.0,East,6.9,-,N/A,,Clear,90,2013-01-04 14:53:00
8:53 AM,6.1,-0.9,73,30.59,10.0,ESE,8.1,-,N/A,,Clear,110,2013-01-04 15:53:00
9:53 AM,9.0,1.0,70,30.59,10.0,ESE,6.9,-,N/A,,Clear,110,2013-01-04 16:53:00
10:53 AM,14.0,3.9,64,30.56,10.0,East,5.8,-,N/A,,Clear,100,2013-01-04 17:53:00
11:53 AM,19.0,6.1,57,30.51,10.0,Calm,Calm,-,N/A,,Clear,0,2013-01-04 18:53:00
12:53 PM,21.9,8.1,55,30.45,10.0,Variable,3.5,-,N/A,,Clear,0,2013-01-04 19:53:00
1:53 PM,26.1,10.0,51,30.39,10.0,West,6.9,-,N/A,,Clear,270,2013-01-04 20:53:00
2:53 PM,27.0,12.0,53,30.38,10.0,WSW,10.4,-,N/A,,Clear,250,2013-01-04 21:53:00
3:53 PM,26.1,10.0,51,30.38,10.0,West,8.1,-,N/A,,Clear,270,2013-01-04 22:53:00
4:53 PM,23.0,10.0,58,30.41,10.0,West,6.9,-,N/A,,Clear,260,2013-01-04 23:53:00
5:53 PM,19.0,9.0,65,30.43,10.0,WSW,5.8,-,N/A,,Clear,240,2013-01-05 00:53:00
6:53 PM,18.0,9.0,68,30.45,10.0,SW,3.5,-,N/A,,Clear,220,2013-01-05 01:53:00
7:53 PM,17.1,8.1,68,30.46,10.0,WSW,3.5,-,N/A,,Clear,240,2013-01-05 02:53:00
8:53 PM,15.1,8.1,74,30.46,10.0,Calm,Calm,-,N/A,,Clear,0,2013-01-05 03:53:00
9:53 PM,9.0,5.0,84,30.50,10.0,NNE,8.1,-,N/A,,Clear,30,2013-01-05 04:53:00
10:53 PM,6.1,1.9,83,30.50,10.0,NE,3.5,-,N/A,,Clear,40,2013-01-05 05:53:00
11:53 PM,5.0,1.0,84,30.49,10.0,NE,4.6,-,N/A,,Clear,40,2013-01-05 06:53:00